TV
NORAD ID: 33275
Int'l Code: 2008-038B
Perigee: 35,784.3 km
Apogee: 35,802.2 km
Inclination: 0.0 °
Period: 1,436.1 minutes
Semi major axis: 42164 km
Launch date: August 14, 2008
Source: (SES)
Comments: AMC 21, also known as Americom 21, carries 24 Ku-band transponders and two reflector antennas to provide television services to the United States, Canada, Mexico and Caribbean countries, after parking over 125° W longitude.
Two Line Element Set (TLE):
1 33275U 08038B 13137.39711080 .00000035 00000-0 10000-3 0 9793
2 33275 000.0188 335.2672 0002126 070.3713 207.6909 01.00273511 17550
Source: AFSPC
NASA's NSSDC Master Catalog entry for AMC-21